RH
74 74 77 80 79 75 72 70 69 69 71 74 78 79 79 82 84 89 86 78 81 94 83 75 73 76 78 88 91 70 76 74 91 95 93 86 91 55 54 40 42 64 75 93 90 95 87 38 44 76 55 58 65 64
74 75 79 80 79 74 68 66 66 67 67 65 65 67 69 73 77 89 98 92 89 96 86 77 68 63 60 55 82 83 76 72 83 95 97 97 83 94 84 91 48 77 70 80 73 57 54 56 74 73 71 62 61 60
79 76 74 72 67 65 66 69 67 66 69 75 79 79 74 72 74 82 99 100 100 100 99 97 87 74 81 67 61 86 87 70 80 83 90 91 99 87 85 63 56 43 39 62 56 51 50 49 50 53 54 58 64 64
72 68 70 72 75 79 78 78 77 77 74 72 70 73 81 81 81 98 100 98 100 99 99 83 63 73 53 58 82 77 70 71 79 92 96 96 94 75 68 59 64 56 62 70 72 60 57 55 53 49 56 61 70 71
67 65 71 75 78 76 74 76 79 79 69 67 67 71 81 82 86 98 100 96 93 99 98 94 72 50 53 57 72 89 90 89 92 98 98 92 89 89 90 80 80 62 68 79 80 56 62 51 49 50 58 65 57 50
70 73 77 80 75 71 71 78 75 71 69 70 74 87 85 85 80 86 93 76 96 100 99 98 70 76 61 56 66 75 90 93 93 98 96 94 80 87 97 82 50 45 44 47 60 53 57 56 54 59 65 64 52 62
70 74 77 77 73 71 74 79 78 71 60 78 88 82 76 78 79 67 82 81 84 92 99 97 96 76 66 79 81 84 76 86 92 94 95 83 85 99 98 89 50 47 52 52 53 58 62 62 60 54 55 50 73 84
69 76 74 74 72 73 75 81 81 76 72 86 75 70 75 80 82 81 67 80 87 92 95 96 93 87 68 94 92 94 97 92 99 94 98 94 78 97 94 58 48 48 48 50 49 49 50 46 48 49 51 58 68 87
72 77 70 70 74 76 81 83 78 81 89 76 79 76 84 80 88 66 70 75 84 70 100 93 88 93 83 93 98 96 94 90 83 98 86 94 92 94 70 58 52 49 55 50 47 51 53 57 58 60 62 76 92 82
75 71 70 72 75 76 80 79 92 98 80 83 80 68 85 61 61 95 94 99 97 99 99 92 94 97 88 94 86 96 99 95 84 87 94 99 76 56 51 50 50 52 54 55 59 60 57 62 74 73 74 88 89 79
72 70 71 75 74 77 78 94 89 89 90 67 85 88 55 76 91 96 99 98 95 98 96 86 83 86 83 92 89 94 91 94 98 86 97 94 87 78 90 95 77 77 78 88 88 82 77 86 86 80 92 93 82 81
76 72 69 71 79 79 94 95 86 74 66 55 61 81 85 92 91 98 96 92 97 88 90 96 94 96 96 98 97 98 96 97 92 88 98 95 91 97 90 76 72 68 72 82 83 94 95 91 90 80 90 92 85 83
74 74 71 72 80 88 98 85 78 62 56 67 79 89 84 94 98 98 96 95 96 98 96 99 98 99 99 99 98 98 97 93 93 98 92 96 80 78 78 76 68 73 94 97 96 96 92 93 86 90 93 90 96 97
73 74 73 74 78 92 82 86 76 58 63 90 92 96 88 96 94 86 84 89 89 99 95 97 98 99 99 98 97 97 86 94 97 96 95 94 79 86 81 75 77 94 98 97 97 95 93 94 97 90 90 95 97 97
75 76 74 76 75 92 84 87 72 64 73 92 96 86 98 88 93 92 92 93 83 88 87 98 99 99 99 98 98 95 97 96 96 96 98 89 80 87 82 81 81 94 96 96 97 99 100 97 96 99 98 100 98 96
82 85 84 69 81 94 87 79 71 70 82 93 84 90 90 92 95 95 94 92 81 91 97 99 98 98 97 98 97 96 96 94 97 99 97 90 87 87 86 85 86 96 98 97 97 98 98 97 97 98 97 94 94 88
74 92 83 93 98 92 88 74 71 82 91 90 98 97 95 97 96 90 93 91 87 99 99 99 94 96 94 97 95 96 97 98 98 98 96 93 94 92 91 92 92 97 97 95 95 95 96 96 94 92 96 96 88 82
85 93 81 90 99 91 72 60 82 91 96 94 100 92 98 96 97 94 94 99 99 99 99 96 97 92 91 95 92 98 94 88 94 94 92 96 91 92 92 96 94 98 98 96 97 96 95 95 93 96 95 93 89 87
98 95 92 84 71 58 81 76 79 93 89 94 95 96 94 93 90 79 95 97 97 99 100 98 98 96 97 97 97 93 91 97 97 93 93 93 93 91 94 96 94 98 97 97 93 96 95 90 90 93 94 90 92 95
89 85 80 67 58 76 92 93 91 94 97 91 99 100 98 94 97 98 95 91 93 97 99 94 96 96 98 99 98 96 96 97 97 94 88 89 92 89 90 96 99 98 97 97 96 95 95 97 92 89 90 89 91 95
93 88 75 68 68 77 92 90 97 98 94 98 96 99 100 98 100 100 96 96 100 99 96 96 98 97 94 93 94 97 92 96 98 97 97 95 91 95 95 95 98 99 98 97 97 100 97 97 94 89 86 86 83 84
86 80 77 71 70 83 92 89 96 95 99 95 92 98 98 99 96 98 94 99 95 84 98 97 98 99 96 88 88 93 96 96 91 88 94 97 96 94 93 95 99 97 99 97 96 98 96 91 91 89 86 85 81 82
75 70 70 79 96 96 89 92 98 96 98 96 95 98 96 99 96 93 100 96 96 99 98 98 90 81 94 81 83 80 77 83 86 81 87 91 96 96 96 98 100 98 97 96 98 96 94 92 94 92 87 90 90 92
79 82 100 96 97 97 90 98 98 99 99 92 98 97 90 92 90 99 98 97 97 98 94 93 98 97 91 85 92 86 84 86 81 81 80 87 90 91 94 97 100 99 98 98 98 97 94 97 96 96 94 96 95 96
99 98 99 98 96 97 97 100 100 95 98 99 100 100 89 97 100 100 92 90 100 98 94 93 94 94 97 96 95 93 82 82 83 84 82 79 84 93 87 88 95 99 99 99 98 97 99 99 100 100 97 96 98 97
96 87 98 96 99 96 96 99 99 91 96 96 96 91 96 99 100 93 90 97 98 95 93 91 91 97 98 95 91 93 82 82 84 82 82 87 93 97 97 94 92 87 87 98 99 98 97 97 98 99 99 99 97 98
99 94 87 82 82 86 96 95 88 97 98 97 92 95 97 99 97 88 97 98 98 93 70 81 95 98 95 88 88 94 99 97 97 95 97 98 98 100 99 98 97 96 100 100 99 99 98 97 97 97 96 98 97 97
96 92 94 89 96 94 95 98 97 94 89 89 94 95 83 89 90 97 98 98 92 83 90 91 93 90 84 78 76 76 79 74 76 76 77 71 72 80 84 96 98 92 100 100 99 100 99 99 98 98 97 96 97 97
99 89 88 93 96 96 97 94 92 86 89 92 91 90 94 89 93 93 78 88 91 94 94 92 81 66 61 64 67 75 80 81 99 100 96 92 87 78 84 91 100 100 100 100 99 99 99 99 98 98 98 97 97 97
86 91 96 98 97 90 82 83 69 71 79 72 85 85 85 83 77 89 84 85 90 98 94 86 79 82 91 98 95 89 79 80 82 96 95 93 90 91 100 100 100 100 100 99 98 98 98 99 98 98 98 98 97 97
92 94 92 90 88 78 72 90 92 96 100 90 78 84 80 82 98 91 90 89 88 81 82 95 91 82 88 94 100 100 93 81 86 93 98 100 98 97 98 98 100 100 100 100 98 98 98 98 98 97 97 97 97 99
99 91 96 99 81 78 95 100 95 99 79 75 71 71 94 99 100 97 95 91 85 95 94 96 99 87 76 81 74 85 90 93 98 100 100 100 100 98 99 100 98 99 99 98 98 98 98 97 97 97 97 97 97 96
96 99 97 98 93 87 89 99 97 97 98 99 92 98 97 93 92 97 95 90 88 86 82 76 66 61 62 65 74 75 87 95 94 91 92 98 100 99 100 100 98 98 98 98 98 98 98 97 97 97 97 97 96 96
Wind_Speed
15 15 15 15 15 14 13 12 11 11 11 11 12 14 15 16 17 19 12 17 14 2 4 7 5 5 2 3 4 3 3 3 2 1 3 4 4 5 7 16 11 7 5 4 2 2 9 12 9 10 7 3 5 7
16 15 15 15 14 12 11 11 10 10 11 11 12 14 15 16 17 19 13 17 22 4 5 4 15 24 23 19 4 4 4 3 4 1 1 1 4 2 3 4 3 4 7 4 6 8 8 5 7 9 12 15 10 11
15 14 13 12 11 11 11 11 10 10 10 11 12 13 14 15 16 18 16 10 11 1 3 6 10 25 27 31 29 5 3 5 6 5 3 3 7 3 6 9 10 13 16 9 17 19 21 22 20 19 19 15 7 11
12 11 11 10 10 9 9 9 10 9 9 9 10 11 12 12 13 17 11 11 6 1 2 5 5 11 14 21 29 30 23 6 2 3 5 5 5 5 7 10 13 11 5 8 14 25 16 19 16 14 11 7 7 8
10 10 11 11 10 10 9 10 10 9 9 9 10 11 10 9 8 11 12 10 14 4 2 4 14 30 29 23 26 25 21 11 6 4 4 7 4 4 4 6 17 12 22 11 17 18 12 12 9 6 7 8 9 14
10 11 11 11 11 11 9 9 9 9 9 9 9 8 8 8 10 7 3 11 18 16 2 4 5 5 10 14 20 16 15 8 5 3 4 5 4 6 4 10 31 14 20 23 23 23 16 14 12 8 11 8 13 12
12 13 12 12 11 12 10 11 10 8 7 6 7 8 9 11 14 3 3 3 8 14 1 3 4 3 5 4 2 2 11 5 4 4 5 8 7 5 3 11 29 14 8 13 16 10 13 9 10 7 7 13 10 9
15 15 12 13 11 11 12 12 10 8 6 7 9 9 9 8 8 6 13 4 11 3 2 3 5 5 2 3 2 1 3 4 4 3 1 3 4 4 7 21 24 11 13 12 16 16 19 20 16 14 11 9 9 8
18 16 14 12 11 12 12 11 9 8 11 12 14 12 9 3 3 2 2 10 17 3 2 3 2 4 3 2 2 3 2 4 3 4 5 4 4 7 14 11 16 11 8 14 13 12 12 14 14 12 11 8 6 5
19 16 14 13 12 11 11 8 11 15 17 18 11 2 3 4 3 3 1 2 3 3 3 4 2 4 2 2 3 2 1 3 3 5 3 4 8 16 15 15 14 18 16 14 12 15 14 14 16 13 12 6 6 6
19 17 15 14 12 12 9 15 16 20 20 5 2 2 2 4 2 1 1 3 2 3 3 3 7 8 3 3 4 3 2 2 3 3 4 3 3 3 6 10 8 10 12 14 14 14 15 12 10 8 5 6 7 9
20 18 17 15 14 11 16 19 24 16 9 5 6 3 2 1 1 2 2 2 4 3 3 3 4 5 3 4 4 3 3 2 6 2 3 3 2 8 8 9 12 13 14 16 13 16 16 17 13 10 7 7 8 12
20 18 18 17 16 15 19 22 24 9 9 4 3 3 1 2 0 4 4 3 3 2 3 3 6 3 3 4 3 3 5 5 1 3 3 1 7 4 6 9 15 14 13 14 16 16 15 11 8 7 8 9 14 14
21 20 18 18 16 18 20 24 19 10 2 2 3 3 4 3 5 5 4 3 4 4 8 8 7 3 3 4 3 4 4 2 3 2 1 2 8 10 8 9 12 15 14 14 12 9 4 8 7 10 14 17 15 8
22 20 17 18 17 21 22 23 11 6 2 2 2 4 6 5 4 3 3 3 5 4 8 7 4 3 3 3 3 3 2 3 3 2 1 5 5 7 9 10 12 12 11 11 9 5 4 7 9 8 11 15 17 17
21 16 14 17 20 23 25 18 6 1 1 2 4 4 3 4 5 3 2 5 3 3 3 3 3 3 4 2 4 4 2 2 3 2 4 4 8 7 8 8 10 9 8 8 7 5 4 5 6 9 13 14 17 21
13 4 16 22 24 21 21 8 2 0 3 3 4 2 3 3 6 5 3 3 2 2 2 2 3 2 4 3 2 0 1 5 7 6 3 4 9 9 8 9 8 8 7 7 6 5 3 6 13 10 8 7 17 18
8 20 25 27 25 20 8 4 2 2 5 4 2 3 3 3 3 4 3 2 2 2 2 2 2 2 3 3 3 3 6 8 5 4 5 7 8 7 6 8 10 6 5 5 4 3 3 3 5 3 10 16 18 18
27 26 26 26 18 5 3 3 3 3 5 2 3 2 3 3 5 6 2 3 4 3 2 1 3 2 2 1 5 8 10 8 7 7 6 6 6 7 7 9 9 4 5 3 2 1 2 1 4 9 13 14 8 13
26 24 25 19 10 2 1 2 2 3 3 3 2 3 3 3 2 3 4 3 1 2 3 3 3 2 2 2 5 7 7 7 5 8 8 5 4 9 9 7 4 6 4 5 2 2 4 5 8 13 14 13 13 12
20 17 12 7 1 1 2 2 4 4 3 3 2 1 4 2 3 2 2 2 2 2 1 1 1 3 3 4 8 8 8 6 6 5 7 7 6 8 7 10 10 6 1 2 2 3 3 1 8 13 15 14 13 18
7 15 4 1 0 2 3 6 3 2 2 3 2 2 3 3 3 3 2 2 2 3 2 2 2 2 3 4 5 11 11 13 13 11 12 10 5 6 6 6 3 4 3 4 5 5 8 8 11 13 15 15 14 19
15 7 3 3 1 2 5 1 4 3 3 3 1 3 3 3 3 0 1 2 1 2 2 2 4 7 5 13 11 11 11 12 7 9 10 10 13 14 11 11 10 4 4 6 12 13 13 13 14 16 16 17 18 19
6 5 4 4 6 4 2 3 2 3 2 3 3 4 4 3 2 1 4 3 2 2 1 2 2 3 3 5 2 4 13 15 12 14 14 13 9 10 15 14 13 14 14 14 10 14 13 15 16 18 19 18 17 16
3 4 3 5 3 3 2 2 3 2 4 3 2 4 4 2 1 3 4 3 3 2 2 2 3 3 3 3 3 6 15 13 8 11 18 16 17 15 14 14 14 17 14 12 9 11 12 16 18 16 17 17 16 16
4 4 7 5 3 3 4 2 4 5 2 3 4 3 2 1 1 6 3 3 3 3 2 3 3 3 3 4 6 5 10 18 17 10 19 17 17 12 10 10 9 10 11 16 15 13 14 16 17 17 16 18 22 19
4 5 4 3 2 1 2 2 2 2 3 4 4 3 0 3 5 4 1 2 2 2 9 13 9 4 6 8 14 17 20 22 16 16 22 24 23 23 21 13 10 15 20 17 20 19 19 20 20 22 19 19 22 22
5 2 4 2 1 1 3 2 2 4 4 2 1 2 3 3 3 1 0 1 5 10 9 6 7 10 12 14 17 20 20 23 25 23 19 18 17 18 18 22 22 23 23 23 23 23 23 22 23 24 24 22 21 24
3 2 2 3 2 2 4 4 4 3 2 1 7 9 4 2 1 2 5 6 5 2 7 9 13 17 19 21 18 18 16 17 6 7 8 9 9 15 23 28 25 26 24 22 21 23 25 24 24 25 26 25 26 27
3 1 1 1 3 4 4 3 8 8 4 8 5 8 8 7 10 5 2 4 5 4 5 7 10 12 8 10 12 24 23 16 6 4 7 9 12 28 30 29 25 25 25 22 19 18 17 19 19 19 20 20 21 21
2 2 2 3 4 5 8 4 5 3 2 4 6 8 11 4 2 5 7 6 6 8 12 11 13 13 10 12 7 5 10 14 15 29 28 27 28 29 29 29 27 27 25 21 16 16 16 16 17 17 17 17 19 20
3 1 1 4 7 6 4 2 3 3 6 8 11 6 2 1 2 1 2 5 9 9 8 13 14 15 20 16 18 18 18 25 31 31 31 30 30 32 32 31 29 25 23 20 17 18 20 18 16 16 17 19 20 22
2 1 2 3 5 6 3 2 4 5 4 3 4 2 2 2 2 2 2 4 5 9 14 17 20 18 13 18 16 19 23 28 31 31 30 29 27 26 27 27 25 22 21 18 16 18 20 19 18 18 18 19 20 22
Wind_Direction
174 176 177 181 183 184 188 194 201 209 216 224 229 232 232 227 219 217 235 221 194 209 254 198 199 205 201 152 176 241 9 297 35 142 159 230 229 237 240 244 252 205 186 212 212 196 268 248 269 212 237 249 249 258
174 176 177 181 188 195 203 212 219 225 230 235 240 241 240 239 233 223 234 235 222 200 241 250 252 248 234 225 167 217 206 183 214 122 244 241 251 268 246 261 275 243 189 200 188 239 241 243 221 254 281 282 279 275
175 182 190 198 208 216 220 221 225 228 236 243 247 249 248 249 244 224 226 208 204 277 284 248 251 254 249 239 237 220 232 195 224 193 199 232 239 161 247 256 260 267 263 246 264 255 259 262 267 268 272 266 268 282
188 203 209 209 208 207 209 216 218 222 234 247 253 254 253 256 247 218 202 238 197 318 261 272 268 250 262 244 228 221 236 226 192 157 232 228 230 201 247 252 247 240 292 254 273 263 267 261 254 264 265 275 281 276
212 217 210 209 209 213 220 217 225 235 248 253 258 253 248 238 216 211 220 224 215 192 241 285 298 282 258 247 226 219 221 224 228 226 226 241 225 223 237 257 258 221 249 239 253 259 244 260 266 261 275 265 294 301
222 211 208 209 210 217 230 223 224 233 254 265 257 229 204 183 179 145 358 231 222 220 335 308 281 279 273 235 218 215 207 206 211 221 232 230 240 199 234 252 260 257 241 237 248 256 253 250 264 253 260 275 285 288
222 212 211 209 217 223 226 223 227 245 260 249 197 188 172 175 175 141 175 312 199 187 242 297 277 275 285 253 220 173 192 201 207 234 231 252 250 225 250 262 262 259 250 240 239 255 272 240 259 236 245 273 264 259
222 210 210 213 223 228 229 226 230 245 232 184 167 155 160 175 197 261 255 218 144 149 174 265 272 335 341 292 309 148 147 196 214 231 223 238 242 209 245 251 273 245 255 253 251 243 253 268 276 274 270 269 264 242
210 206 212 218 222 222 218 219 238 206 167 154 143 143 138 170 194 237 243 205 213 203 205 234 246 263 357 290 273 342 215 234 245 226 220 191 205 228 238 280 283 279 232 257 260 247 249 252 260 259 265 272 231 204
204 207 211 214 213 213 209 224 176 157 153 147 137 136 337 212 175 164 15 138 217 189 219 243 158 257 77 356 302 326 211 228 257 232 141 229 248 257 268 271 284 294 297 285 271 272 262 264 262 251 245 223 196 181
205 205 209 208 209 201 203 169 159 150 144 167 125 193 135 143 165 50 237 228 211 247 218 230 204 238 223 203 220 198 247 246 255 242 196 245 261 272 345 305 282 291 294 283 274 274 270 241 246 256 211 186 155 152
207 205 203 201 191 186 171 161 161 152 165 169 145 112 121 78 227 234 231 235 223 244 211 216 227 215 239 200 201 197 236 193 252 154 230 239 273 258 266 301 309 306 298 290 279 283 274 248 228 228 194 159 146 139
198 194 191 190 182 179 167 170 171 160 138 119 62 49 293 306 305 202 228 228 239 237 238 232 245 233 204 189 200 218 221 231 256 235 230 44 283 298 308 317 321 314 310 300 297 289 259 225 172 158 138 125 135 135
188 185 186 183 179 174 166 176 170 164 121 98 112 300 213 265 240 211 220 218 214 220 260 261 259 233 201 179 220 226 224 264 271 265 280 286 305 317 316 317 320 317 323 321 324 330 138 135 122 119 135 138 133 131
176 176 177 179 177 168 169 165 165 165 145 138 173 239 224 237 268 257 258 293 265 256 285 289 251 223 196 230 207 246 235 236 238 283 273 266 299 299 316 322 327 327 332 333 337 12 20 121 126 108 122 134 135 136
158 152 172 178 174 167 168 160 136 114 70 172 230 245 262 276 285 298 249 256 256 258 277 264 292 279 227 227 213 218 264 295 349 289 272 312 318 312 312 320 323 324 331 336 345 360 58 53 108 112 114 134 149 151
134 120 170 159 147 155 162 147 164 244 207 238 250 221 190 234 251 260 219 243 233 273 257 289 290 294 292 281 277 186 276 330 318 311 308 312 316 319 315 315 322 326 338 349 346 8 38 102 118 112 119 122 146 153
117 144 137 137 145 140 145 180 166 222 254 245 228 247 212 222 250 257 249 222 186 252 252 236 307 283 286 290 314 338 328 324 305 292 307 315 315 319 320 317 325 329 338 350 349 352 100 123 129 106 120 137 130 137
149 149 148 147 138 123 141 210 172 250 243 239 255 223 231 245 234 250 271 280 230 217 262 245 250 236 257 320 327 330 329 325 319 320 307 300 312 319 316 304 308 315 339 341 334 89 98 66 153 145 143 145 135 145
141 145 150 157 172 98 85 290 203 257 269 244 254 260 230 235 276 274 276 285 253 221 215 229 238 269 330 314 325 313 314 311 314 324 324 321 314 329 321 312 307 322 331 325 333 154 133 109 146 161 158 155 148 157
132 147 153 162 0 296 193 230 221 222 255 248 251 241 266 315 287 280 270 204 211 231 261 253 290 273 295 293 297 312 312 311 314 305 306 312 316 301 303 302 300 280 254 272 263 279 245 209 181 177 173 169 173 171
141 161 142 99 42 278 264 223 243 295 254 248 275 230 272 288 276 245 223 196 223 225 157 186 252 267 298 313 312 313 309 315 312 309 296 291 302 311 312 304 280 259 227 229 234 224 232 225 196 186 177 165 166 165
144 159 192 199 68 251 262 223 242 222 246 258 278 264 274 260 233 57 271 240 229 192 184 207 245 271 261 286 294 307 334 333 323 322 319 317 302 294 293 292 278 258 261 254 257 235 224 213 199 186 178 168 165 162
138 169 172 209 184 255 308 262 254 270 280 257 247 262 263 233 319 212 250 247 228 144 162 240 254 302 302 275 292 325 333 326 321 317 323 318 315 311 306 297 286 276 261 263 258 229 219 201 195 184 176 167 165 162
217 221 211 248 266 226 222 254 263 259 260 251 264 278 267 18 256 256 235 252 150 152 247 258 262 238 248 261 270 270 315 316 321 317 311 315 309 305 305 304 292 286 280 238 216 212 206 197 191 183 179 175 170 169
224 227 193 212 254 188 212 241 228 227 238 274 248 269 10 41 287 260 235 181 165 191 236 254 270 275 266 241 284 289 308 319 313 303 299 301 300 296 296 299 301 304 284 256 223 202 196 193 189 189 189 186 181 170
241 263 223 219 241 253 297 264 253 194 254 242 248 305 240 260 250 258 287 215 137 228 317 322 319 288 300 315 315 312 314 320 310 297 298 298 294 289 284 281 289 296 299 273 243 221 206 196 194 193 192 188 186 181
230 235 199 241 251 227 226 302 247 230 239 262 51 301 261 234 261 214 210 33 304 317 326 2 360 352 338 323 320 321 321 325 322 318 311 313 320 311 308 314 298 313 308 287 264 242 222 209 200 193 186 182 178 187
264 280 101 292 302 266 226 219 236 242 238 284 281 274 251 247 239 239 289 306 315 3 31 10 355 354 356 352 348 339 336 333 336 329 327 320 321 312 324 325 316 309 307 302 293 258 236 217 201 191 186 180 182 186
275 145 168 201 196 252 243 199 284 284 270 276 264 271 276 280 279 290 337 35 59 57 37 18 355 348 322 326 319 330 340 335 328 292 318 302 297 302 305 305 302 302 303 296 280 256 230 208 190 175 163 156 158 161
326 11 258 233 272 278 280 297 273 264 251 255 267 264 269 271 114 74 75 80 76 51 28 2 351 354 330 336 326 320 317 326 308 317 315 303 298 298 298 297 293 295 292 284 255 214 189 175 168 163 160 157 159 154
338 273 299 276 296 295 8 33 261 257 283 286 286 277 324 99 221 335 60 73 54 40 11 354 336 328 340 337 333 328 318 316 319 316 313 308 306 311 315 309 306 291 286 273 239 208 190 172 165 163 160 158 156 157
283 323 277 321 332 326 289 17 285 297 309 278 280 238 236 177 154 203 128 45 42 24 1 350 348 347 347 342 340 338 336 331 329 332 330 328 320 321 324 323 321 309 288 260 227 200 182 169 160 155 154 153 153 158